Flag for France Weather past 2 weeks in Gustavia, Saint Barthélemy, France

Now
81 °F

Passing clouds.


Feels Like: 85 °F
Forecast: 82 / 85 °F
Wind: 10 mph from East

Location: Juliana Airport - Saint Maarten

Current Time: Aug 28, 2014 at 12:05:39 AM

Latest Report: Aug 27, 2014 at 11:00 PM


Visibility: N/A

Pressure: 30.04 "Hg

Humidity: 79%

Dew point: 73 °F

Location of GustaviaLocation

Historic Weather in Gustavia — Graph

°F

Gustavia temperature yesterday

Maximum temperature yesterday: 88 °F (at 12:00 PM)
Minimum temperature yesterday: 79 °F (at 10:46 PM)
Average temperature yesterday: 84 °F

Past Weeks' High & Low Weather Summary

 TemperatureHumidityPressure
High90 °F (Aug 18, 2:00 PM)89% (Aug 17, 1:00 AM)30.09 "Hg (Aug 17, 1:00 AM)
Low79 °F (Aug 27, 10:46 PM)52% (Aug 18, 2:00 PM)29.83 "Hg (Aug 22, 2:00 AM)
Average84 °F74%29.98 "Hg
* Reported Aug 12 11:00 PM — Aug 27 11:00 PM, Gustavia, Weather by CustomWeather, © 2014

Note: Actual official high and low records may vary slightly from our data, if they occured in-between our weather recording intervals... More about our weather records

Advertising

Gustavia weather history for previous 24 hours

 ConditionsComfort  
Time TempWeatherWind HumidityBarometerVisibility
11:00 PM
Aug 27
81 °FPassing clouds.10 mph79%30.04 "HgN/A
10:46 PM79 °FRain showers. Passing clouds.14 mph84%30.04 "Hg2 mi
10:00 PM84 °FPassing clouds.16 mph74%30.04 "HgN/A
9:00 PM82 °FSprinkles. Passing clouds.17 mph79%30.04 "HgN/A
8:00 PM84 °FPassing clouds.18 mph74%30.01 "HgN/A
7:00 PM84 °FPassing clouds.14 mph74%29.98 "HgN/A
6:00 PM84 °FPassing clouds.14 mph74%29.98 "HgN/A
5:00 PM86 °FScattered clouds.18 mph70%29.98 "HgN/A
4:00 PM88 °FPassing clouds.18 mph66%29.98 "HgN/A
3:00 PM88 °FPartly sunny.21 mph66%29.98 "HgN/A
2:00 PM88 °FScattered clouds.21 mph62%29.98 "HgN/A
1:00 PM88 °FPassing clouds.21 mph62%29.98 "HgN/A
12:00 PM88 °FPartly sunny.22 mph66%30.01 "HgN/A
11:00 AM86 °FSprinkles. Partly sunny.16 mph70%30.01 "HgN/A
10:00 AM86 °FPartly sunny.21 mph66%30.01 "HgN/A
9:00 AM86 °FPartly sunny.21 mph70%30.01 "HgN/A
8:00 AM84 °FPartly sunny.15 mph74%30.01 "HgN/A
7:00 AM84 °FScattered clouds.18 mph74%29.98 "HgN/A
6:00 AM82 °FPassing clouds.16 mph74%29.98 "HgN/A
5:00 AM84 °FPassing clouds.17 mph70%29.98 "HgN/A
4:00 AM82 °FPassing clouds.13 mph79%29.98 "HgN/A
3:00 AM82 °FPassing clouds.13 mph79%29.98 "HgN/A
2:00 AM82 °FPassing clouds.15 mph79%29.98 "HgN/A
1:00 AM82 °FPassing clouds.15 mph79%30.01 "HgN/A
12:00 AM84 °FPassing clouds.15 mph74%30.04 "HgN/A
Weather by CustomWeather, © 2014

See weather overviewHow to use our weather pages